Change the Weather History Date:

Saturday, October 29, 2011

  Actual Average Record
Temperature  
Mean Temperature 56 °F -  
Max Temperature 64 °F 69 °F 93 °F (1997)
Min Temperature 47 °F 53 °F 46 °F (2005)
Degree Days  
Heating Degree Days 10    
Growing Degree Days 6 (Base 50)    
Moisture  
Dew Point 49 °F    
Average Humidity 67    
Maximum Humidity 82    
Minimum Humidity 47    
Precipitation  
Precipitation 0.00 in - - ()
Sea Level Pressure  
Sea Level Pressure 29.92 in    
Wind  
Wind Speed 5 mph ()    
Max Wind Speed 12 mph    
Max Gust Speed -    
Visibility 7.6 miles    
Events      
Averages and records for this station are not official NWS values.
T = Trace of Precipitation, MM = Missing Value Source: Averaged Metar Reports

Daily Weather History Graph

Daily Weather History Graph

Search for Another Location

Airport or City:

Trip Planner

Search our weather history database for the weather conditions in past years. The results will help you decide how hot, cold, wet, or windy it might be!

Date:

Astronomy

Oct. 29, 2011 Rise Set
Actual Time 5:33 AM SAST 6:55 PM SAST
Civil Twilight 5:06 AM SAST 7:21 PM SAST
Nautical Twilight 4:35 AM SAST 7:53 PM SAST
Astronomical Twilight 4:02 AM SAST 8:26 PM SAST
Moon 7:25 AM SAST 10:10 PM SAST
Length of Visible Light 14h 15m
Length of Day
13h 22m
Waxing Crescent, 10% of the Moon is Illuminated
Oct 29
Waxing Crescent
Nov 2
First Quarter
Nov 10
Full
Nov 18
Last Quarter
Nov 25
New

Hourly Weather History & Observations

Time (SAST) Temp. Dew Point Humidity Pressure Visibility Wind Dir Wind Speed Gust Speed Precip Events Conditions
5:00 AM 52 °F 46 °F 74% 29.95 in 12 mi NW 2.3 mph - -   Mostly Cloudy
5:00 AM 51.8 °F 46.4 °F 82% 29.92 in 6.2 mi NW 3.5 mph - N/A   Mostly Cloudy
6:00 AM 53.6 °F 48.2 °F 82% 29.92 in 6.2 mi NNE 2.3 mph - N/A   Mostly Cloudy
7:00 AM 57.2 °F 46.4 °F 67% 29.92 in 6.2 mi Calm Calm - N/A   Mostly Cloudy
8:00 AM 59 °F 49 °F 60% 29.94 in 12 mi SSE 3.5 mph - -   Partly Cloudy
8:00 AM 59.0 °F 50.0 °F 72% 29.92 in 6.2 mi SSE 3.5 mph - N/A   Scattered Clouds
9:00 AM 60.8 °F 48.2 °F 63% 29.92 in 6.2 mi South 3.5 mph - N/A   Scattered Clouds
10:00 AM 62.6 °F 51.8 °F 68% 29.92 in 6.2 mi SSW 6.9 mph - N/A   Scattered Clouds
11:00 AM 62 °F 51 °F 57% 29.92 in 12 mi SSE 8.1 mph - -   Partly Cloudy
11:00 AM 62.6 °F 50.0 °F 63% 29.92 in 6.2 mi South 9.2 mph - N/A   Scattered Clouds
12:00 PM 64.4 °F 51.8 °F 64% 29.89 in 6.2 mi South 9.2 mph - N/A   Scattered Clouds
1:00 PM 64.4 °F 50.0 °F 59% 29.89 in 6.2 mi SSE 10.4 mph - N/A   Scattered Clouds
2:00 PM 63 °F 48 °F 47% 29.90 in 12 mi SSE 11.5 mph - -   Partly Cloudy
2:00 PM 64.4 °F 48.2 °F 56% 29.89 in 6.2 mi SSE 11.5 mph - N/A   Scattered Clouds
3:00 PM 62.6 °F 48.2 °F 59% 29.89 in 6.2 mi SSE 8.1 mph - N/A   Mostly Cloudy
4:00 PM 60.8 °F 50.0 °F 68% 29.89 in 6.2 mi SSE 9.2 mph - N/A   Mostly Cloudy
5:00 PM 60 °F 50 °F 61% 29.91 in 12 mi South 8.1 mph - -   Mostly Cloudy
5:00 PM 60.8 °F 50.0 °F 68% 29.89 in 6.2 mi South 8.1 mph - N/A   Mostly Cloudy
6:00 PM 59.0 °F 50.0 °F 72% 29.92 in 6.2 mi South 8.1 mph - N/A   Mostly Cloudy
7:00 PM 59.0 °F 50.0 °F 72% 29.92 in 6.2 mi SSW 6.9 mph - N/A   Mostly Cloudy
8:00 PM 58 °F 50 °F 68% 29.95 in 12 mi SSW 4.6 mph - -   Mostly Cloudy
8:00 PM 59.0 °F 50.0 °F 72% 29.95 in 6.2 mi SSW 4.6 mph - N/A   Mostly Cloudy
9:00 PM 57.2 °F 50.0 °F 77% 29.95 in 6.2 mi SW 2.3 mph - N/A   Overcast
10:00 PM 57.2 °F 48.2 °F 72% 29.98 in 6.2 mi WNW 2.3 mph - N/A   Overcast
11:00 PM 57.2 °F 51.8 °F 82% 29.95 in 6.2 mi NW 4.6 mph - N/A   Mostly Cloudy